Regional Weather Roundup
Issued by NWS

Home | Current Version | Previous Version | Graphics & Text | Print | Product List | Glossary On
Versions: 1 2 3 4 5 6 7 8 9 10 11 12 13 14 15 16 17 18 19 20 21 22 23 24 25 26 27 28 29 30 31 32 33 34 35 36 37 38 39 40 41 42 43 44 45 46 47 48 49 50
000
ASUS43 KDMX 300807
RWRIA

WEATHER ROUNDUP FOR IOWA
NATIONAL WEATHER SERVICE DES MOINES IA
300 AM CDT SAT AUG 30 2014

NOTE: "FAIR" INDICATES FEW OR NO CLOUDS BELOW 12,000 FEET WITH NO
SIGNIFICANT WEATHER AND/OR OBSTRUCTIONS TO VISIBILITY.

* - THESE STATIONS ARE NOT NWS STATIONS...THUS NOT UNDER NWS
QUALITY CONTROL.  THEY ALSO DO NOT REPORT WEATHER SUCH
AS PRECIPITATION OR FOG.

IAZ001>003-012>014-020>022-031>034-043>046-300900-
   NORTHWEST IOWA

CITY           SKY/WX    TMP DP  RH WIND       PRES   REMARKS
CARROLL *      MOCLDY    64  64 100 W5        29.83R
CHEROKEE *     PTCLDY    64  64 100 CALM      29.84R
DENISON *      FOG       64  64 100 CALM      29.83S VSB 1/4
LE MARS *        N/A     64  64 100 W3        29.85S
ORANGE CITY *  PTCLDY    64  61  88 NW6       29.85S FOG
SHELDON *      CLOUDY    63  63 100 CALM      29.84R FOG
SIOUX CITY     CLEAR     64  62  93 CALM      29.85S
SPENCER        MOCLDY    63  62  97 NW7       29.83R
STORM LAKE *   CLOUDY    64  64 100 NW8       29.84R FOG
$$

IAZ055>058-069>071-079>083-090>094-300900-
   SOUTHWEST IOWA

CITY           SKY/WX    TMP DP  RH WIND       PRES   REMARKS
ATLANTIC *     CLOUDY    68  66  94 SW6       29.85R FOG
AUDUBON *      PTCLDY    66  64  94 W6        29.86R
CLARINDA *     PTCLDY    64  64 100 S3        29.87S
COUNCIL BLFS * CLEAR     64  64 100 W6        29.85S FOG
CRESTON *      PTCLDY    64  64 100 W7        29.86R
HARLAN  *      CLOUDY    66  66 100 W7        29.88S FOG
LAMONI         MOCLDY    67  66  97 W8        29.84S
RED OAK *      PTCLDY    64  64 100 CALM      29.85S
SHENANDOAH *   FOG       63  63 100 SW3       29.86S VSB 3/4
$$

IAZ047>049-059>061-072>074-084-300900-
   CENTRAL IOWA

CITY           SKY/WX    TMP DP  RH WIND       PRES   REMARKS
AMES           CLOUDY    67  66  97 W6        29.79S
ANKENY *       CLOUDY    68  66  94 W12       29.80R
CHARITON *     PTCLDY    64  64 100 SW5       29.83R
DES MOINES     MOCLDY    68  65  90 W6        29.80S
GRINNELL*      MOCLDY    66  64  94 SW8       29.80S
KNOXVILLE *    CLOUDY    66  64  94 SW12      29.80S
MARSHALLTOWN   CLOUDY    67  66  97 SW8       29.77S
PELLA *        CLOUDY    66  66 100 SW6       29.82S
PERRY *        CLOUDY    66  64  94 W6        29.82S
$$

IAZ004>006-015-016-023>025-035-036-300900-
   NORTH CENTRAL IOWA

CITY           SKY/WX    TMP DP  RH WIND       PRES   REMARKS
ALGONA *       MOCLDY    66  66 100 W3        29.81R
CLARION *      MOCLDY    66  66 100 W6        29.79R
ESTHERVILLE    MOCLDY    64  63  96 W5        29.81S
FORT DODGE *   CLOUDY    64  64 100 CALM      29.81R
MASON CITY     MOCLDY    66  65  96 NW5       29.79S
FOREST CITY *  CLOUDY    64  64 100 NW6       29.79R
IOWA FALLS *   CLOUDY    68  66  94 W6        29.79R
$$

IAZ007>011-017>019-026>030-037>042-050>054-066-300900-
   NORTHEAST IOWA

CITY           SKY/WX    TMP DP  RH WIND       PRES   REMARKS
CEDAR RAPIDS   CLOUDY    68  68 100 SW8       29.79R
CHARLES CITY * CLOUDY    68  66  94 SW5       29.77S FOG
CLINTON *      PTCLDY    70  66  88 SW7       29.84R
DECORAH *      MOCLDY    66  66 100 CALM      29.76S FOG
DUBUQUE        MOCLDY    70  69  97 SW15G22   29.80S
MONTICELLO *   LGT RAIN  72  70  94 S6        29.79S
OELWEIN *      CLOUDY    68  68 100 SW9       29.78S
WATERLOO       CLOUDY    68  66  93 SW9       29.75S
$$

IAZ064-065-067-068-078-300900-
   EAST CENTRAL IOWA

CITY           SKY/WX    TMP DP  RH WIND       PRES   REMARKS
DAVENPORT      RAIN      70  66  87 SW20G26   29.82S
IOWA CITY      CLOUDY    69  68  96 S6        29.81S
MT. PLEASANT * MOCLDY    70  68  94 S3        29.82F
MUSCATINE *    CLOUDY    70  66  88 SW8       29.82S
QUAD CITIES    MOCLDY    71  69  93 SW10      29.83R
$$

IAZ062-063-075>077-085>089-095>099-300900-
   SOUTHEAST IOWA

CITY           SKY/WX    TMP DP  RH WIND       PRES   REMARKS
BURLINGTON     HVY RAIN  72  71  97 SW9       29.84R FOG
FAIRFIELD *    MOCLDY    66  64  94 SW6       29.82S
FORT MADISON * CLOUDY    73  73 100 SW9G18    29.85R
KEOKUK *       MOCLDY    73  72  94 SW14G20   29.85R
OSKALOOSA *    MOCLDY    64  64 100 SW6       29.81S
CENTERVILLE *  CLEAR     66  66 100 S7        29.85R
OTTUMWA        PTCLDY    65  63  93 S7        29.81S
WASHINGTON *   MOCLDY    66  66 100 SW7       29.82S
$$

ABBREVIATIONS USED IN REMARKS
   TC - TEMPERATURES IN CELSIUS
  WCI - WIND CHILL INDEX
   HX - HEAT INDEX
  VSB - VISIBILITY
$$



USA.gov is the U.S. government's official web portal to all federal, state and local government web resources and services.